Weather History for Wheaton NDB, MN

Change the Weather History Date:

Thursday, October 6, 2011

  Actual Average Record
Temperature  
Mean Temperature 66 °F -  
Max Temperature 80 °F 65 °F 93 °F (1963)
Min Temperature 53 °F 38 °F 23 °F (1954)
Cooling Degree Days 2    
Growing Degree Days 16 (Base 50)    
Moisture  
Dew Point 41 °F    
Average Humidity 42    
Maximum Humidity 62    
Minimum Humidity 26    
Precipitation  
Precipitation 0.00 in - - ()
Sea Level Pressure  
Sea Level Pressure 29.89 in    
Wind  
Wind Speed 16 mph (SE)    
Max Wind Speed 33 mph    
Max Gust Speed 46 mph    
Visibility 10 miles    
Events      
Averages and records for this station are not official NWS values.
T = Trace of Precipitation, MM = Missing Value Source: NWS Daily Summary

Daily Weather History Graph

Daily Weather History Graph

Search for Another Location

Airport:

Trip Planner

Search our weather history database for the weather conditions in past years. The results will help you decide how hot, cold, wet, or windy it might be!

Date:

Astronomy

Oct. 06, 2011 Rise Set
Actual Time 7:30 AM CDT 6:57 PM CDT
Civil Twilight 7:00 AM CDT 7:26 PM CDT
Nautical Twilight 6:26 AM CDT 8:01 PM CDT
Astronomical Twilight 5:51 AM CDT 8:36 PM CDT
Moon 4:24 PM CDT (10/6) 2:04 AM CDT (10/6)
Length of Visible Light 12h 26m
Length of Day
11h 26m
Waxing Gibbous, 75% of the Moon is Illuminated
Oct 6
Waxing Gibbous
Oct 11
Full
Oct 19
Last Quarter
Oct 26
New
Nov 2
First Quarter

Hourly Weather History & Observations

Time (CDT) Temp. Dew Point Humidity Pressure Visibility Wind Dir Wind Speed Gust Speed Precip Events Conditions
12:15 AM 62.6 °F 39.2 °F 42% 29.94 in 10.0 mi SE 12.7 mph - N/A   Clear
12:35 AM 62.6 °F 39.2 °F 42% 29.94 in 10.0 mi SE 12.7 mph - N/A   Clear
12:55 AM 60.8 °F 39.2 °F 45% 29.94 in 10.0 mi SE 10.4 mph - N/A   Clear
1:15 AM 60.8 °F 39.2 °F 45% 29.95 in 10.0 mi SE 10.4 mph - N/A   Clear
1:35 AM 59.0 °F 39.2 °F 48% 29.95 in 10.0 mi SE 9.2 mph - N/A   Clear
1:55 AM 57.2 °F 39.2 °F 51% 29.95 in 10.0 mi SE 10.4 mph - N/A   Clear
2:15 AM 55.4 °F 39.2 °F 54% 29.95 in 10.0 mi SE 10.4 mph - N/A   Clear
2:35 AM 55.4 °F 39.2 °F 54% 29.95 in 10.0 mi SE 11.5 mph - N/A   Clear
2:55 AM 55.4 °F 39.2 °F 54% 29.95 in 10.0 mi SE 11.5 mph - N/A   Clear
3:15 AM 57.2 °F 39.2 °F 51% 29.95 in 10.0 mi SE 12.7 mph - N/A   Clear
3:35 AM 57.2 °F 39.2 °F 51% 29.95 in 10.0 mi SE 12.7 mph - N/A   Clear
3:55 AM 55.4 °F 39.2 °F 54% 29.95 in 10.0 mi ESE 10.4 mph - N/A   Clear
4:15 AM 55.4 °F 39.2 °F 54% 29.94 in 10.0 mi ESE 11.5 mph - N/A   Clear
4:36 AM 55.4 °F 39.2 °F 54% 29.94 in 10.0 mi ESE 12.7 mph - N/A   Clear
4:55 AM 55.4 °F 39.2 °F 54% 29.94 in 10.0 mi ESE 11.5 mph - N/A   Clear
5:16 AM 55.4 °F 39.2 °F 54% 29.94 in 10.0 mi ESE 11.5 mph - N/A   Clear
5:35 AM 55.4 °F 39.2 °F 54% 29.94 in 10.0 mi SE 12.7 mph - N/A   Clear
5:55 AM 55.4 °F 39.2 °F 54% 29.95 in 10.0 mi ESE 11.5 mph - N/A   Clear
6:16 AM 53.6 °F 39.2 °F 58% 29.95 in 10.0 mi SE 12.7 mph - N/A   Clear
6:35 AM 55.4 °F 39.2 °F 54% 29.95 in 10.0 mi SE 12.7 mph - N/A   Clear
7:15 AM 53.6 °F 39.2 °F 58% 29.95 in 10.0 mi ESE 11.5 mph - N/A   Clear
7:36 AM 53.6 °F 41.0 °F 62% 29.95 in 10.0 mi ESE 11.5 mph - N/A   Clear
7:55 AM 53.6 °F 41.0 °F 62% 29.95 in 10.0 mi SE 12.7 mph - N/A   Clear
8:16 AM 55.4 °F 41.0 °F 58% 29.95 in 10.0 mi SE 12.7 mph - N/A   Clear
8:35 AM 55.4 °F 41.0 °F 58% 29.95 in 10.0 mi ESE 11.5 mph - N/A   Clear
8:55 AM 57.2 °F 42.8 °F 59% 29.95 in 10.0 mi ESE 13.8 mph - N/A   Clear
9:16 AM 60.8 °F 42.8 °F 52% 29.95 in 10.0 mi SE 16.1 mph 20.7 mph N/A   Clear
9:36 AM 62.6 °F 42.8 °F 48% 29.95 in 10.0 mi SE 12.7 mph - N/A   Clear
9:55 AM 64.4 °F 42.8 °F 45% 29.94 in 10.0 mi SE 15.0 mph - N/A   Clear
10:15 AM 66.2 °F 44.6 °F 46% 29.94 in 10.0 mi SE 13.8 mph 24.2 mph N/A   Clear
10:35 AM 68.0 °F 42.8 °F 40% 29.93 in 10.0 mi SE 18.4 mph 28.8 mph N/A   Clear
10:56 AM 69.8 °F 42.8 °F 38% 29.93 in 10.0 mi SE 21.9 mph 27.6 mph N/A   Clear
11:15 AM 71.6 °F 44.6 °F 38% 29.93 in 10.0 mi SE 21.9 mph 29.9 mph N/A   Clear
11:35 AM 71.6 °F 44.6 °F 38% 29.92 in 10.0 mi SE 23.0 mph 29.9 mph N/A   Clear
11:55 AM 73.4 °F 44.6 °F 36% 29.91 in 10.0 mi SE 20.7 mph 28.8 mph N/A   Clear
12:15 PM 73.4 °F 44.6 °F 36% 29.90 in 10.0 mi SE 25.3 mph 29.9 mph N/A   Clear
12:35 PM 75.2 °F 44.6 °F 34% 29.90 in 10.0 mi SSE 19.6 mph 31.1 mph N/A   Clear
12:55 PM 77.0 °F 44.6 °F 32% 29.89 in 10.0 mi SE 27.6 mph 34.5 mph N/A   Clear
1:15 PM 78.8 °F 44.6 °F 30% 29.88 in 10.0 mi SE 27.6 mph 35.7 mph N/A   Clear
1:35 PM 78.8 °F 44.6 °F 30% 29.88 in 10.0 mi SE 27.6 mph 36.8 mph N/A   Clear
2:15 PM 78.8 °F 42.8 °F 28% 29.85 in 10.0 mi SE 31.1 mph 38.0 mph N/A   Clear
2:35 PM 78.8 °F 42.8 °F 28% 29.84 in 10.0 mi SE 32.2 mph 41.4 mph N/A   Clear
2:55 PM 80.6 °F 42.8 °F 26% 29.83 in 10.0 mi SE 31.1 mph 40.3 mph N/A   Clear
3:16 PM 78.8 °F 42.8 °F 28% 29.83 in 10.0 mi SE 32.2 mph 39.1 mph N/A   Clear
3:35 PM 77.0 °F 42.8 °F 29% 29.83 in 10.0 mi SE 27.6 mph 34.5 mph N/A   Clear
3:55 PM 77.0 °F 42.8 °F 29% 29.83 in 10.0 mi SE 28.8 mph 39.1 mph N/A   Clear
4:15 PM 77.0 °F 42.8 °F 29% 29.83 in 10.0 mi SSE 28.8 mph 39.1 mph N/A   Clear
4:35 PM 77.0 °F 42.8 °F 29% 29.82 in 10.0 mi SE 31.1 mph 36.8 mph N/A   Clear
4:55 PM 77.0 °F 42.8 °F 29% 29.82 in 10.0 mi SE 33.4 mph 46.0 mph N/A   Clear
5:15 PM 75.2 °F 42.8 °F 31% 29.82 in 10.0 mi SE 28.8 mph 39.1 mph N/A   Clear
5:35 PM 75.2 °F 42.8 °F 31% 29.82 in 10.0 mi SE 31.1 mph 40.3 mph N/A   Clear
5:56 PM 75.2 °F 42.8 °F 31% 29.81 in 10.0 mi SE 27.6 mph 39.1 mph N/A   Clear
6:15 PM 75.2 °F 41.0 °F 29% 29.80 in 10.0 mi SE 24.2 mph 39.1 mph N/A   Clear
6:35 PM 73.4 °F 41.0 °F 31% 29.80 in 10.0 mi SE 21.9 mph 33.4 mph N/A   Clear
6:55 PM 73.4 °F 39.2 °F 29% 29.79 in 10.0 mi SE 26.5 mph 36.8 mph N/A   Clear
7:15 PM 73.4 °F 39.2 °F 29% 29.80 in 10.0 mi SE 26.5 mph 36.8 mph N/A   Clear
7:35 PM 71.6 °F 39.2 °F 31% 29.80 in 10.0 mi SE 25.3 mph 31.1 mph N/A   Clear
8:16 PM 71.6 °F 39.2 °F 31% 29.79 in 10.0 mi SE 28.8 mph 36.8 mph N/A   Clear
8:36 PM 71.6 °F 39.2 °F 31% 29.80 in 10.0 mi SE 25.3 mph 34.5 mph N/A   Clear
8:55 PM 71.6 °F 39.2 °F 31% 29.79 in 10.0 mi SE 24.2 mph 29.9 mph N/A   Clear
9:15 PM 69.8 °F 39.2 °F 33% 29.80 in 10.0 mi SE 21.9 mph 32.2 mph N/A   Clear
9:35 PM 69.8 °F 39.2 °F 33% 29.81 in 10.0 mi SE 21.9 mph 32.2 mph N/A   Clear
9:56 PM 69.8 °F 39.2 °F 33% 29.81 in 10.0 mi SE 23.0 mph 33.4 mph N/A   Clear
10:15 PM 69.8 °F 39.2 °F 33% 29.80 in 10.0 mi SE 23.0 mph 33.4 mph N/A   Clear
10:35 PM 69.8 °F 41.0 °F 35% 29.81 in 10.0 mi SE 24.2 mph 32.2 mph N/A   Clear
10:55 PM 69.8 °F 41.0 °F 35% 29.81 in 10.0 mi SE 24.2 mph 33.4 mph N/A   Clear
11:15 PM 69.8 °F 41.0 °F 35% 29.81 in 10.0 mi SE 26.5 mph 38.0 mph N/A   Clear
11:55 PM 69.8 °F 41.0 °F 35% 29.80 in 10.0 mi SE 23.0 mph 34.5 mph N/A   Clear